Regional Weather Roundup
Issued by NWS Charleston, SC

Current Version | Previous Version | Text Only | Print | Product List | Glossary Off
Versions: 1 2 3 4 5 6 7 8 9 10 11 12 13 14 15 16 17 18 19 20 21 22 23 24 25 26 27 28 29 30 31 32 33 34 35 36 37 38 39 40 41 42 43 44 45 46 47 48 49 50

960
ASUS42 KCHS 270128
RWRCHS

REGIONAL WEATHER ROUNDUP
NATIONAL WEATHER SERVICE CHARLESTON SC
900 PM EDT FRI AUG 26 2016

NOTE: "FAIR" INDICATES FEW OR NO CLOUDS BELOW 12,000 FEET WITH NO
SIGNIFICANT WEATHER AND/OR OBSTRUCTIONS TO VISIBILITY.

NOT ALL STATIONS ARE QUALITY CONTROLLED. USE DATA WITH CAUTION...
ESPECIALLY DEWPOINT OBSERVATIONS.

SCZ027-030-031-034>040-042>050-270200-
...SOUTHEAST SOUTH CAROLINA...

CITY           SKY/WX    TMP DP  RH WIND       PRES   REMARKS
N CHARLESTON   CLEAR     82  70  66 E7        30.04R
WATERFRONT PRK   N/A     83  75  76 E7        30.02S HX  90
MOUNT PLEASANT FAIR      77  73  88 CALM      30.05R
JOHNS ISLAND   FAIR      79  73  83 CALM      30.05R
PINOPOLIS        N/A     82  73  74 CALM      29.98R
MONCKS CORNER  FAIR      79  72  78 CALM      30.06R
SUMMERVILLE    FAIR      81  72  74 CALM      30.06R
BEAUFORT MCAS  CLEAR     81  74  79 CALM      30.05R
BEAUFORT ARPT  FAIR      79  72  78 CALM      30.06R
HILTON HEAD IS PTCLDY    81  72  74 CALM      30.07R
WALTERBORO     CLEAR     81  72  74 CALM      30.07R
ALLENDALE      FAIR      82  73  74 S5        30.05R

...SOUTHERN MIDLANDS AND PEE DEE...

CITY           SKY/WX    TMP DP  RH WIND       PRES   REMARKS
GEORGETOWN     FAIR      77  72  83 E3        30.06S
KINGSTREE      FAIR      79  70  73 SE5       30.05S
ORANGEBURG     CLEAR     83  71  67 CALM      30.05R
BARNWELL       NOT AVBL
AIKEN          FAIR      82  70  65 SE3       30.10R
MANNING        FAIR      81  72  74 CALM      30.05S
COLUMBIA       PTCLDY    88  72  58 SE6       30.03R HX  94
SUMTER         CLEAR     85  73  67 S5        30.03R HX  91
FLORENCE       CLEAR     84  74  71 S7        30.05R HX  91
MYRTLE BEACH   CLEAR     82  66  57 SE7       30.07R
N MYRTLE BEACH CLEAR     82  72  71 E6        30.05R

$$

GAZ063-065-086>088-099>101-113>116-118-119-134>141-150-270200-
...SOUTHEAST GEORGIA...

CITY           SKY/WX    TMP DP  RH WIND       PRES   REMARKS
SAVANNAH ARPT  PTCLDY    80  70  71 E7        30.05R
HUNTER AAF     CLEAR     79  73  83 SE5       30.03R
FORT STEWART   CLEAR     78  70  78 CALM      30.03R
STATESBORO     CLEAR     83  73  71 SE3       30.06R
SYLVANIA       NOT AVBL
CLAXTON        FAIR      80  72  75 CALM      30.05R

...CSRA...CENTRAL AND FAR SOUTHEAST GEORGIA...

CITY           SKY/WX    TMP DP  RH WIND       PRES   REMARKS
THOMSON        CLEAR     83  75  77 MISG      30.10R HX  90
AUGUSTA-BUSH   CLEAR     81  74  79 SE6       30.03R
AUGUSTA-DANIEL CLEAR     88  70  55 SE5       30.05R HX  93
SWAINSBORO     FAIR      84  70  61 SE6       30.06R
VIDALIA        CLEAR     82  73  74 SE6       30.06R
EASTMAN        FAIR      85  56  37 SE5       30.07R
HAZLEHURST     FAIR      83  71  66 CALM      30.05R
ALMA           PTCLDY    79  67  66 E3        30.04R
WAYCROSS         N/A     80  71  74 E3        30.05R
JESUP          FAIR      75  73  94 CALM      30.06R
BAXLEY         FAIR      81  73  78 CALM      30.05R
BRUNSWICK      CLEAR     75  72  88 CALM      30.06R
SAINT SIMONS   PTCLDY    82  69  64 E9        30.04R

$$

SCZ027-028-034-036>038-045-046-048>050-GAZ119-141-270200-
...LAKE AND SUPPLEMENTAL COASTAL OBSERVATIONS...

STATION/POSITION TIME  TEMP    WIND        PRES    WAVE   SWELL
                       AIR SEA DIR/SP/G            HT/PER HT/PER/DIR
                 (UTC) (F)     (DEG/KT/KT) (MB)    (FT/S) (FT/S/D)
WINYAH BAY       0045   82     110/  6     1017.0S
LAKE MURRAY      0000   90     100/  4/  7 1015.9R
ACE BASIN NERRS  0000   81      90/  2     1017.0S
FORT PULASKI     0100   82 86   80/ 10/ 11   N/A
SAPELO ISLAND    0100   79      80/  3     1017.0S

$$

ANZ835-935-AMZ111-154-330-350-352-354-370-450-454-472-270200-
...C-MAN AND BUOY OBSERVATIONS...

STATION/POSITION TIME  TEMP    WIND        PRES    WAVE   SWELL
                       AIR SEA DIR/SP/G            HT/PER HT/PER/DIR
                 (UTC) (F)     (DEG/KT/KT) (MB)    (FT/S) (FT/S/D)
BUOY 41004       0050   82 83   80/ 12/ 14 1016.5R   3/ 4   2/110/ 7
BUOY 41008       0050   83 85   80/ 10/ 12 1016.9R   3/ 8   3/100/ 8
FOLLY BEACH CMAN 0100   82      70/ 10/ 12 1017.4R
CAPERS NEARSHORE 0008   82 85   90/  8/ 14 1017.0S
FRIPP NEARSHORE  0108   82 86   90/ 10/ 16 1017.2R


STATION/POSITION TIME  TEMP    WIND        PRES    WAVE   SWELL
                       AIR SEA DIR/SP/G            HT/PER HT/PER/DIR
                 (UTC) (F)     (DEG/KT/KT) (MB)    (FT/S) (FT/S/D)
5E ST. MARYS GA  0001      85                N/A     3/ 8
FRYING PAN BUOY  0100   82 85   80/ 10/ 12 1017.3R
BUOY 41025       0050   82 85  150/  6/  8 1018.2R   2/ 8   2/ 90/ 8
CAPE LOOKOUT NC  0100   81     140/  8/  9 1017.9R
BUOY 41002       0050   82 84   80/ 16/ 17 1016.1S   6/10   3/120/10
BUOY 41010       NOT AVBL
ST AUGUSTINE FL  0100   82 84   80/ 10/ 12 1017.3R


$$




USA.gov is the U.S. government's official web portal to all federal, state and local government web resources and services.